When you browse on this site, cookies collect data to enhance your experience and personalize the content and advertising you see.
Visit our Privacy Policy to learn more. By continuing to use the site, you agree to this use of cookies and data.
  • In Österreich
  • Länderverzeichnis
  • Für 7 Tage
  • Wassertemperatur
  • Wetterkarte
  • News
  • Widgets
  • user-avatar
    Anmelden

    Stündliche Wetter Chhunchhon

    Heute, 7 April, Dienstag

    Zeit Temperatur Niederschläge Wind Luftdruck Luftfeuchtigkeit
    00:00 +6°C° 0 mm 0 m/S 748 mmHg 52%
    01:00 +6°C° 0 mm 0 m/S 748 mmHg 54%
    02:00 +5°C° 0 mm 0 m/S 747 mmHg 56%
    03:00 +4°C° 0 mm 0 m/S 747 mmHg 58%
    04:00 +4°C° 0 mm 0 m/S 747 mmHg 61%
    05:00 +4°C° 0 mm 0 m/S 747 mmHg 64%
    06:00 +4°C° 0 mm 1 m/S 747 mmHg 66%
    07:00 +6°C° 0 mm 1 m/S 747 mmHg 61%
    08:00 +9°C° 0 mm 1 m/S 747 mmHg 55%
    09:00 +11°C° 0 mm 1 m/S 746 mmHg 50%
    10:00 +13°C° 0 mm 2 m/S 746 mmHg 47%
    11:00 +15°C° 0 mm 2 m/S 746 mmHg 45%
    12:00 +16°C° 0 mm 3 m/S 746 mmHg 42%
    13:00 +17°C° 0 mm 3 m/S 746 mmHg 41%
    14:00 +17°C° 0 mm 4 m/S 745 mmHg 39%
    15:00 +17°C° 0 mm 5 m/S 745 mmHg 37%
    16:00 +16°C° 0 mm 5 m/S 745 mmHg 39%
    17:00 +15°C° 0 mm 5 m/S 744 mmHg 41%
    18:00 +14°C° 0 mm 4 m/S 744 mmHg 42%
    19:00 +12°C° 0 mm 3 m/S 745 mmHg 41%
    20:00 +10°C° 0 mm 3 m/S 745 mmHg 40%
    21:00 +8°C° 0 mm 2 m/S 746 mmHg 39%
    22:00 +8°C° 0 mm 1 m/S 746 mmHg 40%
    23:00 +7°C° 0 mm 1 m/S 746 mmHg 41%

    Morgen, 8 April, Mittwoch

    Zeit Temperatur Niederschläge Wind Luftdruck Luftfeuchtigkeit
    00:00 +6°C° 0 mm 1 m/S 746 mmHg 42%
    01:00 +6°C° 0 mm 1 m/S 747 mmHg 45%
    02:00 +5°C° 0 mm 1 m/S 747 mmHg 48%
    03:00 +5°C° 0 mm 1 m/S 747 mmHg 51%
    04:00 +4°C° 0 mm 1 m/S 747 mmHg 52%
    05:00 +4°C° 0 mm 1 m/S 747 mmHg 52%
    06:00 +3°C° 0 mm 1 m/S 747 mmHg 53%
    07:00 +4°C° 0 mm 2 m/S 748 mmHg 45%
    08:00 +5°C° 0 mm 3 m/S 748 mmHg 37%
    09:00 +6°C° 0 mm 4 m/S 748 mmHg 29%
    10:00 +7°C° 0 mm 5 m/S 748 mmHg 26%
    11:00 +9°C° 0 mm 5 m/S 748 mmHg 24%
    12:00 +10°C° 0 mm 5 m/S 748 mmHg 21%
    13:00 +10°C° 0 mm 5 m/S 748 mmHg 21%
    14:00 +12°C° 0 mm 5 m/S 748 mmHg 20%
    15:00 +12°C° 0 mm 5 m/S 748 mmHg 20%
    16:00 +10°C° 0 mm 5 m/S 748 mmHg 22%
    17:00 +11°C° 0 mm 4 m/S 748 mmHg 24%
    18:00 +10°C° 0 mm 4 m/S 748 mmHg 26%
    19:00 +9°C° 0 mm 3 m/S 749 mmHg 30%
    20:00 +7°C° 0 mm 3 m/S 749 mmHg 34%
    21:00 +6°C° 0 mm 2 m/S 750 mmHg 38%
    22:00 +5°C° 0 mm 2 m/S 750 mmHg 40%
    23:00 +4°C° 0 mm 2 m/S 750 mmHg 42%

    übermorgen, 9 April, Donnerstag

    Zeit Temperatur Niederschläge Wind Luftdruck Luftfeuchtigkeit
    00:00 +5°C° 0 mm 1 m/S 750 mmHg 44%
    01:00 +4°C° 0 mm 1 m/S 750 mmHg 48%
    02:00 +4°C° 0 mm 1 m/S 750 mmHg 52%
    03:00 +3°C° 0 mm 1 m/S 750 mmHg 56%
    04:00 +3°C° 0 mm 1 m/S 750 mmHg 59%
    05:00 +2°C° 0 mm 1 m/S 750 mmHg 61%
    06:00 +1°C° 0 mm 0 m/S 750 mmHg 63%
    07:00 +4°C° 0 mm 1 m/S 750 mmHg 57%
    08:00 +7°C° 0 mm 1 m/S 750 mmHg 50%
    09:00 +8°C° 0 mm 2 m/S 751 mmHg 43%
    10:00 +9°C° 0 mm 3 m/S 751 mmHg 40%
    11:00 +11°C° 0 mm 4 m/S 751 mmHg 36%
    12:00 +12°C° 0 mm 5 m/S 750 mmHg 33%
    13:00 +12°C° 0 mm 5 m/S 750 mmHg 32%
    14:00 +13°C° 0 mm 5 m/S 750 mmHg 31%
    15:00 +13°C° 0 mm 5 m/S 750 mmHg 31%
    16:00 +12°C° 0 mm 4 m/S 750 mmHg 32%
    17:00 +12°C° 0 mm 4 m/S 751 mmHg 34%
    18:00 +11°C° 0 mm 3 m/S 751 mmHg 35%
    19:00 +9°C° 0 mm 2 m/S 752 mmHg 42%
    20:00 +8°C° 0 mm 2 m/S 752 mmHg 49%
    21:00 +7°C° 0 mm 1 m/S 753 mmHg 55%
    22:00 +7°C° 0 mm 1 m/S 753 mmHg 60%
    23:00 +6°C° 0 mm 1 m/S 753 mmHg 65%

    10 April, Freitag

    Zeit Temperatur Niederschläge Wind Luftdruck Luftfeuchtigkeit
    00:00 +5°C° 0 mm 1 m/S 754 mmHg 70%
    01:00 +5°C° 0 mm 1 m/S 754 mmHg 73%
    02:00 +3°C° 0 mm 0 m/S 753 mmHg 76%
    03:00 +3°C° 0 mm 0 m/S 753 mmHg 79%
    04:00 +2°C° 0 mm 0 m/S 754 mmHg 80%
    05:00 +2°C° 0 mm 0 m/S 754 mmHg 82%
    06:00 +2°C° 0 mm 0 m/S 754 mmHg 84%
    07:00 +4°C° 0 mm 0 m/S 754 mmHg 73%
    08:00 +7°C° 0 mm 0 m/S 754 mmHg 62%
    09:00 +10°C° 0 mm 0 m/S 755 mmHg 51%
    10:00 +12°C° 0 mm 1 m/S 754 mmHg 46%
    11:00 +14°C° 0 mm 1 m/S 754 mmHg 41%
    12:00 +16°C° 0 mm 1 m/S 754 mmHg 35%
    13:00 +16°C° 0 mm 2 m/S 753 mmHg 34%
    14:00 +16°C° 0 mm 2 m/S 752 mmHg 34%
    15:00 +16°C° 0 mm 2 m/S 752 mmHg 33%
    16:00 +15°C° 0 mm 2 m/S 752 mmHg 34%
    17:00 +15°C° 0 mm 2 m/S 752 mmHg 35%
    18:00 +14°C° 0 mm 2 m/S 752 mmHg 36%
    19:00 +12°C° 0 mm 2 m/S 752 mmHg 43%
    20:00 +10°C° 0 mm 2 m/S 752 mmHg 50%
    21:00 +9°C° 0 mm 1 m/S 753 mmHg 56%
    22:00 +8°C° 0 mm 1 m/S 753 mmHg 58%
    23:00 +8°C° 0 mm 1 m/S 752 mmHg 59%

    11 April, Samstag

    Zeit Temperatur Niederschläge Wind Luftdruck Luftfeuchtigkeit
    00:00 +7°C° 0 mm 1 m/S 752 mmHg 61%
    01:00 +6°C° 0 mm 0 m/S 752 mmHg 63%
    02:00 +5°C° 0 mm 0 m/S 751 mmHg 65%
    03:00 +4°C° 0 mm 0 m/S 751 mmHg 67%
    04:00 +4°C° 0 mm 0 m/S 751 mmHg 68%
    05:00 +4°C° 0 mm 0 m/S 751 mmHg 70%
    06:00 +3°C° 0 mm 0 m/S 751 mmHg 72%
    07:00 +6°C° 0 mm 0 m/S 751 mmHg 63%
    08:00 +8°C° 0 mm 0 m/S 751 mmHg 54%
    09:00 +12°C° 0 mm 1 m/S 750 mmHg 44%
    10:00 +13°C° 0 mm 1 m/S 750 mmHg 38%
    11:00 +15°C° 0 mm 2 m/S 750 mmHg 31%
    12:00 +16°C° 0 mm 3 m/S 749 mmHg 25%
    13:00 +17°C° 0 mm 3 m/S 749 mmHg 23%
    14:00 +17°C° 0 mm 3 m/S 748 mmHg 22%
    15:00 +17°C° 0 mm 3 m/S 748 mmHg 21%
    16:00 +17°C° 0 mm 3 m/S 747 mmHg 22%
    17:00 +16°C° 0 mm 3 m/S 747 mmHg 23%
    18:00 +16°C° 0 mm 3 m/S 747 mmHg 24%
    19:00 +14°C° 0 mm 2 m/S 747 mmHg 29%
    20:00 +12°C° 0 mm 2 m/S 748 mmHg 34%
    21:00 +10°C° 0 mm 1 m/S 748 mmHg 39%
    22:00 +9°C° 0 mm 1 m/S 748 mmHg 44%
    23:00 +8°C° 0 mm 1 m/S 748 mmHg 49%

    12 April, Sonntag

    Zeit Temperatur Niederschläge Wind Luftdruck Luftfeuchtigkeit
    00:00 +7°C° 0 mm 1 m/S 748 mmHg 53%
    01:00 +7°C° 0 mm 1 m/S 748 mmHg 57%
    02:00 +6°C° 0 mm 1 m/S 748 mmHg 61%
    03:00 +6°C° 0 mm 1 m/S 747 mmHg 64%
    04:00 +6°C° 0 mm 1 m/S 748 mmHg 69%
    05:00 +5°C° 0 mm 1 m/S 748 mmHg 74%
    06:00 +5°C° 0 mm 1 m/S 748 mmHg 79%
    07:00 +6°C° 0.2 mm 2 m/S 748 mmHg 75%
    08:00 +7°C° 0.2 mm 2 m/S 748 mmHg 71%
    09:00 +8°C° 0.2 mm 3 m/S 749 mmHg 68%
    10:00 +8°C° 0.9 mm 3 m/S 749 mmHg 69%
    11:00 +7°C° 0.9 mm 4 m/S 749 mmHg 71%
    12:00 +7°C° 0.9 mm 4 m/S 748 mmHg 72%
    13:00 +8°C° 0 mm 5 m/S 748 mmHg 69%
    14:00 +8°C° 0 mm 5 m/S 748 mmHg 65%
    15:00 +8°C° 0 mm 5 m/S 748 mmHg 61%
    16:00 +8°C° 0 mm 4 m/S 748 mmHg 61%
    17:00 +7°C° 0 mm 4 m/S 748 mmHg 61%
    18:00 +8°C° 0 mm 3 m/S 748 mmHg 60%
    19:00 +5°C° 0 mm 3 m/S 749 mmHg 66%
    20:00 +5°C° 0 mm 2 m/S 749 mmHg 73%
    21:00 +5°C° 0 mm 1 m/S 749 mmHg 79%
    22:00 +4°C° 0 mm 1 m/S 749 mmHg 80%
    23:00 +3°C° 0 mm 1 m/S 749 mmHg 81%
    Mehr zeigen